User: anonymous   Login
Location: Caltech
(34.1382°N, 118.1253°W)
Time: 07:57:50
(UTC-07:00)
Language:

Cosmos 1484 Rocket - Orbit

View from above orbital plane
View from above orbital plane
View from above satellite
View from above satellite

Ground track
Ground track

The orbit data is extracted from the following two-line orbital elements,

1 14208U 83075B   18172.93452991 +.00000275 +00000-0 +20175-4 0  9992
2 14208 097.3435 173.4327 0037589 296.2776 063.4594 15.10709278903021
Epoch (UTC): 21 June 2018 22:25:43
Eccentricity: 0.0037589
inclination: 97.3435°
perigee height: 508 km
apogee height: 560 km
right ascension of ascending node: 173.4327°
argument of perigee: 296.2776°
revolutions per day: 15.10709278
mean anomaly at epoch: 63.4594°
orbit number at epoch: 90302

The dashed part of the orbit path shows where the satellite is in the earth's shadow,  

DLR